Погода в Симферополе

Россия / Республика Крым     44˚56′53″N   34˚06′01″E
темп.,
°C
ветер,
м/с
пор.,
м/с
влажн.,
%
обл.,
%
осадки,
мм/ч
давл.,
гПа
погр.,
м
15 января, пт
пт1500:00ссв2297100 0.4 1007137
03:00св2395100 0.7 1007209
06:00с119296 0.1 1009111
09:00в119098 0.1 100952
12:00+3˚ю1259100 0.0 1011478
15:00+4˚з3447100 0.0 10101020
18:00+2˚зсз226685 0.0 101161
21:00сз487892 0.2 1013597
16 января, сб
сб1600:00−2˚ссз148165 0.0 1015274
03:00−3˚юз128261 0.1 1016222
06:00−3˚ссв228882 0.1 1016136
09:00−3˚всв128372 0.1 101794
12:00+1˚з115857 0.0 1017636
15:00+1˚с325455 0.0 1015709
18:00−2˚всв5867100 0.0 1015354
21:00−2˚всв6976100 0.0 1014362
17 января, вс
вс1700:00−2˚всв81277100 0.0 1012506
03:00−3˚св91372100 0.0 1010694
06:00−3˚св91382100 0.2 1009854
09:00−4˚св81288100 0.9 1010771
12:00−4˚ссв71086100 0.8 1011674
15:00−4˚ссв7976100 1.0 1011786
18:00−5˚ссв5772100 0.0 1012682
21:00−7˚ссв5781100 0.1 1014606
18 января, пн
пн1800:00−8˚с4584100 0.1 1014490
03:00−9˚с3382100 0.1 1016465
06:00−10˚с2380100 0.0 1016444
09:00−10˚з1278100 0.0 1018375
12:00−8˚зсз2363100 0.0 1020576
15:00−6˚зсз345762 0.0 1020801
18:00−7˚з22681 0.0 102160
21:00−8˚ю127224 0.0 102263
19 января, вт
вт1900:00−7˚ююв1174100 0.0 102387
03:00−6˚вюв1273100 0.0 102236
06:00−7˚всв2380100 0.0 1022121
09:00−7˚в3487100 0.1 1022163
12:00−5˚ссв2269100 0.0 1022562
15:00−5˚с3368100 0.0 1022646
18:00−7˚с357159 0.0 1023238
21:00−8˚с237952 0.0 1024286